Location: Montamat
(43.4852°N, 0.8444°E)
Time: 12:01:57
(UTC+00:00)

SL-16 R/B - Pass Details

Date: 14 May 2026
Orbit: 841 x 844 km, 71.0° (Epoch: 5 June)

Event Time Altitude Azimuth Distance (km) Brightness Sun altitude
Rises 21:20:10 0° 334° (NNW) 3,413 6.9 -18.5°
Reaches altitude 10° 21:22:38 10° 333° (NNW) 2,474 5.8 -18.8°
Maximum altitude 21:28:19 83° 248° (WSW) 857 2.2 -19.4°
Enters shadow 21:30:47 35° 163° (SSE) 1,325 2.7 -19.7°
